C/2015 O1 ( PanSTARRS )

Japanese version
Home page
Updated on February 13, 2018

---------------------------------------------------------------------

* Profile

Discovery Date July 19, 2015
Magnitude 19.6 mag
Discoverer Pan-STARRS 1 telescope (Haleakala)

* Pictures

* Orbital Elements

Epoch 2018 Feb. 11.0 TT = JDT 2458160.5
T 2018 Feb. 19.04568 TT                                 MPCW
q   3.7295465            (2000.0)            P               Q
z  -0.0000211      Peri.   89.59792     -0.52098451     -0.50148370
 +/-0.0000004      Node   299.85556     -0.59857699     +0.79153557
e   1.0000788      Incl.  127.21098     +0.60850696     +0.34926428
From 1757 observations 2015 June 15-2018 Jan. 24, mean residual 0".4.

* Finding Charts

* Magnitudes Graph

        m1 = 7.0 + 5 log d + 7.5 log r

---------------------------------------------------------------------

The orbital elements are published on M.P.E.C. 2018-B155.
The charts are made with StellaNavigator Ver.8 (AstroArts).
The magnitudes graphs are made with Comet for Windows.

---------------------------------------------------------------------

Copyright(C) Seiichi Yoshida (comet@aerith.net). All rights reserved.